• In Latvia
  • List of Countries
  • For 7 days
  • Water Temperature
  • Satellite Maps
  • Weather Map
  • Weather Widgets
  • user-avatar
    Login

    Hourly Weather Mayrhofen

    Today, 23 November, Thursday

    Time Temperature Precipitation Wind Pressure Humidity
    00:00 -4°C° 0 mm 3 mps 614 mmHg 81%
    01:00 -4°C° 0 mm 3 mps 614 mmHg 82%
    02:00 -4°C° 0 mm 3 mps 614 mmHg 82%
    03:00 -4°C° 0 mm 3 mps 613 mmHg 82%
    04:00 -4°C° 0 mm 3 mps 613 mmHg 82%
    05:00 -5°C° 0 mm 3 mps 613 mmHg 82%
    06:00 -5°C° 0 mm 3 mps 613 mmHg 81%
    07:00 -4°C° 0 mm 2 mps 613 mmHg 81%
    08:00 -3°C° 0 mm 2 mps 614 mmHg 80%
    09:00 -1°C° 0 mm 2 mps 615 mmHg 79%
    10:00 +2°C° 0 mm 2 mps 615 mmHg 78%
    11:00 +3°C° 0 mm 2 mps 616 mmHg 80%
    12:00 +5°C° 0 mm 1 mps 616 mmHg 82%
    13:00 +6°C° 0 mm 1 mps 616 mmHg 84%
    14:00 +5°C° 0 mm 1 mps 616 mmHg 83%
    15:00 +3°C° 0 mm 1 mps 615 mmHg 81%
    16:00 +2°C° 0 mm 1 mps 615 mmHg 79%
    17:00 +1°C° 0 mm 1 mps 615 mmHg 78%
    18:00 0°C° 0 mm 1 mps 615 mmHg 77%
    19:00 -1°C° 0 mm 1 mps 615 mmHg 75%
    20:00 -1°C° 0 mm 1 mps 615 mmHg 74%
    21:00 -1°C° 0 mm 1 mps 616 mmHg 72%
    22:00 -1°C° 0 mm 1 mps 616 mmHg 71%
    23:00 -1°C° 0 mm 1 mps 616 mmHg 71%

    Tomorrow, 24 November, Friday

    Time Temperature Precipitation Wind Pressure Humidity
    00:00 -1°C° 0 mm 1 mps 616 mmHg 71%
    01:00 -2°C° 0 mm 1 mps 616 mmHg 71%
    02:00 -4°C° 0 mm 2 mps 616 mmHg 72%
    03:00 -4°C° 0 mm 2 mps 616 mmHg 73%
    04:00 -4°C° 0 mm 2 mps 615 mmHg 74%
    05:00 -4°C° 0 mm 2 mps 615 mmHg 75%
    06:00 -4°C° 0 mm 2 mps 615 mmHg 76%
    07:00 -4°C° 0 mm 2 mps 615 mmHg 77%
    08:00 -3°C° 0 mm 2 mps 616 mmHg 76%
    09:00 -1°C° 0 mm 2 mps 616 mmHg 75%
    10:00 +2°C° 0 mm 2 mps 617 mmHg 74%
    11:00 +3°C° 0 mm 2 mps 617 mmHg 75%
    12:00 +4°C° 0 mm 2 mps 617 mmHg 75%
    13:00 +5°C° 0 mm 2 mps 617 mmHg 76%
    14:00 +3°C° 0 mm 2 mps 616 mmHg 78%
    15:00 +2°C° 0 mm 2 mps 616 mmHg 79%
    16:00 +1°C° 0 mm 2 mps 615 mmHg 81%
    17:00 -1°C° 0 mm 2 mps 615 mmHg 81%
    18:00 -1°C° 0 mm 2 mps 615 mmHg 81%
    19:00 -2°C° 0 mm 2 mps 615 mmHg 81%
    20:00 -2°C° 0 mm 2 mps 615 mmHg 82%
    21:00 -2°C° 0 mm 2 mps 615 mmHg 82%
    22:00 -2°C° 0 mm 2 mps 615 mmHg 83%
    23:00 -2°C° 0 mm 2 mps 615 mmHg 85%

    Day after tomorrow, 25 November, Saturday

    Time Temperature Precipitation Wind Pressure Humidity
    00:00 -2°C° 0 mm 2 mps 615 mmHg 86%
    01:00 -2°C° 0 mm 2 mps 615 mmHg 87%
    02:00 -2°C° 0 mm 2 mps 614 mmHg 89%
    03:00 -3°C° 0 mm 2 mps 614 mmHg 90%
    04:00 -4°C° 0 mm 3 mps 613 mmHg 91%
    05:00 -4°C° 0 mm 3 mps 612 mmHg 91%
    06:00 -4°C° 0 mm 3 mps 612 mmHg 92%
    07:00 -2°C° 0 mm 3 mps 612 mmHg 92%
    08:00 -2°C° 0 mm 3 mps 611 mmHg 90%
    09:00 -1°C° 0 mm 3 mps 611 mmHg 88%
    10:00 -1°C° 0 mm 4 mps 611 mmHg 87%
    11:00 +1°C° 0.1 mm 3 mps 611 mmHg 88%
    12:00 +1°C° 0.1 mm 3 mps 611 mmHg 88%
    13:00 +2°C° 0.1 mm 3 mps 611 mmHg 89%
    14:00 +2°C° 0.9 mm 2 mps 610 mmHg 91%
    15:00 +1°C° 0.9 mm 2 mps 610 mmHg 93%
    16:00 +1°C° 0.9 mm 2 mps 610 mmHg 95%
    17:00 -1°C° 1.5 mm 2 mps 610 mmHg 95%
    18:00 -2°C° 1.5 mm 2 mps 610 mmHg 95%
    19:00 -2°C° 1.5 mm 2 mps 610 mmHg 95%
    20:00 -3°C° 0.9 mm 2 mps 610 mmHg 95%
    21:00 -5°C° 0.9 mm 3 mps 611 mmHg 94%
    22:00 -6°C° 0.9 mm 3 mps 611 mmHg 94%
    23:00 -6°C° 0.4 mm 3 mps 611 mmHg 93%

    26 November, Sunday

    Time Temperature Precipitation Wind Pressure Humidity
    00:00 -7°C° 0.4 mm 3 mps 612 mmHg 92%
    01:00 -7°C° 0.4 mm 3 mps 612 mmHg 91%
    02:00 -8°C° 0.2 mm 3 mps 612 mmHg 92%
    03:00 -9°C° 0.2 mm 3 mps 612 mmHg 92%
    04:00 -9°C° 0.2 mm 3 mps 612 mmHg 93%
    05:00 -10°C° 0.1 mm 3 mps 613 mmHg 93%
    06:00 -12°C° 0.1 mm 3 mps 613 mmHg 92%
    07:00 -13°C° 0.1 mm 3 mps 613 mmHg 92%
    08:00 -12°C° 0 mm 3 mps 614 mmHg 87%
    09:00 -12°C° 0 mm 3 mps 614 mmHg 82%
    10:00 -10°C° 0 mm 3 mps 615 mmHg 77%
    11:00 -10°C° 0 mm 3 mps 615 mmHg 74%
    12:00 -9°C° 0 mm 3 mps 616 mmHg 72%
    13:00 -9°C° 0 mm 3 mps 616 mmHg 70%
    14:00 -9°C° 0 mm 3 mps 616 mmHg 74%
    15:00 -9°C° 0 mm 2 mps 616 mmHg 78%
    16:00 -10°C° 0 mm 2 mps 616 mmHg 82%
    17:00 -12°C° 0 mm 2 mps 616 mmHg 84%
    18:00 -13°C° 0 mm 2 mps 616 mmHg 86%
    19:00 -14°C° 0 mm 2 mps 615 mmHg 88%
    20:00 -14°C° 0 mm 2 mps 616 mmHg 86%
    21:00 -14°C° 0 mm 2 mps 616 mmHg 85%
    22:00 -14°C° 0 mm 2 mps 616 mmHg 84%
    23:00 -14°C° 0 mm 2 mps 616 mmHg 83%

    27 November, Monday

    Time Temperature Precipitation Wind Pressure Humidity
    00:00 -14°C° 0 mm 2 mps 616 mmHg 81%
    01:00 -14°C° 0 mm 2 mps 616 mmHg 80%
    02:00 -14°C° 0 mm 2 mps 616 mmHg 81%
    03:00 -14°C° 0 mm 2 mps 616 mmHg 82%
    04:00 -14°C° 0 mm 2 mps 616 mmHg 83%
    05:00 -14°C° 0 mm 2 mps 616 mmHg 83%
    06:00 -14°C° 0 mm 2 mps 616 mmHg 83%
    07:00 -12°C° 0 mm 1 mps 616 mmHg 83%
    08:00 -10°C° 0 mm 1 mps 616 mmHg 80%
    09:00 -9°C° 0 mm 1 mps 617 mmHg 77%
    10:00 -7°C° 0 mm 1 mps 618 mmHg 73%
    11:00 -6°C° 0 mm 1 mps 618 mmHg 71%
    12:00 -4°C° 0 mm 1 mps 617 mmHg 69%
    13:00 -3°C° 0 mm 1 mps 617 mmHg 67%
    14:00 -4°C° 0 mm 1 mps 617 mmHg 72%
    15:00 -7°C° 0 mm 1 mps 616 mmHg 77%
    16:00 -8°C° 0 mm 1 mps 615 mmHg 81%
    17:00 -9°C° 0 mm 1 mps 615 mmHg 82%
    18:00 -10°C° 0 mm 1 mps 614 mmHg 84%
    19:00 -11°C° 0 mm 1 mps 614 mmHg 85%
    20:00 -11°C° 0 mm 1 mps 614 mmHg 81%
    21:00 -11°C° 0 mm 1 mps 614 mmHg 77%
    22:00 -10°C° 0 mm 1 mps 614 mmHg 73%
    23:00 -12°C° 0 mm 2 mps 613 mmHg 72%

    28 November, Tuesday

    Time Temperature Precipitation Wind Pressure Humidity
    00:00 -12°C° 0 mm 2 mps 613 mmHg 70%
    01:00 -12°C° 0 mm 2 mps 613 mmHg 69%
    02:00 -12°C° 0 mm 2 mps 613 mmHg 68%
    03:00 -10°C° 0 mm 2 mps 612 mmHg 67%
    04:00 -10°C° 0 mm 2 mps 612 mmHg 66%
    05:00 -10°C° 0 mm 2 mps 612 mmHg 65%
    06:00 -10°C° 0 mm 2 mps 612 mmHg 64%
    07:00 -10°C° 0 mm 2 mps 611 mmHg 63%
    08:00 -9°C° 0 mm 2 mps 612 mmHg 62%
    09:00 -7°C° 0 mm 2 mps 612 mmHg 62%
    10:00 -4°C° 0 mm 1 mps 612 mmHg 62%
    11:00 -3°C° 0 mm 1 mps 612 mmHg 61%
    12:00 -2°C° 0 mm 1 mps 612 mmHg 60%
    13:00 -1°C° 0 mm 1 mps 612 mmHg 60%
    14:00 -2°C° 0 mm 1 mps 611 mmHg 65%
    15:00 -5°C° 0 mm 2 mps 611 mmHg 71%
    16:00 -7°C° 0 mm 2 mps 610 mmHg 77%
    17:00 -7°C° 0 mm 2 mps 610 mmHg 78%
    18:00 -8°C° 0 mm 2 mps 609 mmHg 80%
    19:00 -9°C° 0 mm 2 mps 609 mmHg 81%
    20:00 -9°C° 0 mm 2 mps 609 mmHg 81%
    21:00 -9°C° 0 mm 2 mps 609 mmHg 81%
    22:00 -9°C° 0 mm 2 mps 609 mmHg 81%
    23:00 -9°C° 0 mm 2 mps 609 mmHg 82%
    Show more